Banff, Canada 16 day weather forecast

Slopes altitude range 1630 m - 2730m

Number of lifts: 26 Pistes: 120km

In some cases the lift and piste totals shown are for the ski domain (e.g. Three Valleys) rather than individual resort (e.g. Courchevel)

Overview

The 16 day weather forecast is fully updated 4 times every day.

    • Sun 23 SEP 2018
    • Sun 23
    • 1C 1C
    • Mon 24 SEP 2018
    • Mon 24
    • -3C 0C
    • Tue 25 SEP 2018
    • Tue 25
    • -3C -1C
    • Wed 26 SEP 2018
    • Wed 26
    • -2C -1C
    • Thu 27 SEP 2018
    • Thu 27
    • -1C 1C
    • Fri 28 SEP 2018
    • Fri 28
    • 2C 3C
    • Sat 29 SEP 2018
    • Sat 29
    • -3C -3C
    • Sun 30 SEP 2018
    • Sun 30
    • -8C -6C
    • Mon 01 OCT 2018
    • Mon 01
    • -11C -9C
    • Tue 02 OCT 2018
    • Tue 02
    • -13C -11C
    • Wed 03 OCT 2018
    • Wed 03
    • -10C 0C
    • Thu 04 OCT 2018
    • Thu 04
    • -6C 2C
    • Fri 05 OCT 2018
    • Fri 05
    • -2C 3C
    • Sat 06 OCT 2018
    • Sat 06
    • -4C 2C
    • Sun 07 OCT 2018
    • Sun 07
    • -5C 3C
    • Mon 08 OCT 2018
    • Mon 08
    • -2C 2C

Date:

Time Type 0°C level Temp Chill Snow Cloud Speed Gust Dir Press
3:00 2681m 1°C 1_3 0cm 96% 3mph 3mph 1014mB
6:00 2588m 0°C 0_3 0cm 86% 3mph 4mph 1014mB
9:00 2550m 1°C 1_3 0cm 100% 3mph 4mph 1014mB
12:00 2471m 1°C 1_4 1cm 100% 4mph 4mph 1013mB
15:00 2421m 2°C 2_4 1cm 87% 4mph 6mph 1013mB
18:00 2516m 5°C 5_6 0cm 69% 6mph 8mph 1012mB
21:00 2630m 4°C 4_6 0cm 94% 6mph 10mph 1012mB
0:00 2655m 4°C 4_5 2cm 96% 5mph 11mph 1011mB
3:00 2544m 1°C 1_4 1cm 88% 4mph 5mph 1014mB
6:00 2181m 0°C 0_4 1cm 89% 4mph 5mph 1016mB
9:00 1810m -2°C -2_4 0cm 91% 4mph 5mph 1017mB
12:00 1693m 0°C 0_5 0cm 95% 5mph 5mph 1017mB
15:00 1945m -1°C -1_5 0cm 97% 5mph 7mph 1018mB
18:00 2282m 3°C 3_5 0cm 95% 5mph 7mph 1017mB
21:00 2517m 3°C 3_6 2cm 58% 6mph 10mph 1016mB
0:00 2561m 3°C 3_3 4cm 42% 3mph 6mph 1018mB
3:00 2134m -1°C -1_1 1cm 91% 1mph 1mph 1023mB
6:00 2080m -1°C -1_1 2cm 84% 1mph 2mph 1025mB
9:00 1664m -3°C -3_3 0cm 25% 3mph 4mph 1026mB
12:00 1569m -1°C -1_4 0cm 24% 4mph 5mph 1027mB
15:00 1985m -1°C -1_5 0cm 87% 5mph 6mph 1026mB
18:00 2353m 4°C 4_5 0cm 92% 5mph 7mph 1023mB
21:00 2623m 4°C 4_5 0cm 91% 5mph 7mph 1020mB
0:00 2727m 4°C 4_5 0cm 47% 5mph 9mph 1019mB
3:00 2278m 0°C 0_5 0cm 16% 5mph 5mph 1022mB
6:00 1923m -1°C -1_5 0cm 23% 5mph 5mph 1023mB
9:00 1876m -1°C -1_5 0cm 84% 5mph 5mph 1023mB
12:00 1801m -1°C -1_5 0cm 73% 5mph 5mph 1023mB
15:00 2349m 1°C 1_4 0cm 50% 4mph 5mph 1023mB
18:00 2584m 6°C 6_4 0cm 47% 4mph 6mph 1020mB
21:00 2822m 6°C 6_4 0cm 81% 4mph 8mph 1018mB
0:00 2762m 5°C 5_2 0cm 91% 2mph 3mph 1018mB
3:00 2535m 2°C 2_4 0cm 99% 4mph 5mph 1020mB
6:00 2261m 1°C 1_4 2cm 99% 4mph 6mph 1022mB
9:00 2126m 0°C 0_4 2cm 100% 4mph 6mph 1022mB
12:00 2015m 1°C 1_3 2cm 99% 3mph 5mph 1023mB
15:00 2026m 0°C 0_3 1cm 95% 3mph 4mph 1023mB
18:00 2269m 3°C 3_3 1cm 90% 3mph 4mph 1020mB
21:00 2553m 3°C 3_4 0cm 93% 4mph 5mph 1017mB
0:00 2669m 3°C 3_4 0cm 95% 4mph 7mph 1014mB
3:00 2774m 3°C 3_5 0cm 98% 5mph 5mph 1014mB
6:00 2864m 3°C 3_6 0cm 96% 6mph 6mph 1012mB
9:00 3020m 2°C 2_6 0cm 86% 6mph 8mph 1012mB
12:00 3006m 3°C 3_4 0cm 92% 4mph 4mph 1013mB
15:00 2124m 2°C 2_6 3cm 100% 6mph 8mph 1016mB
18:00 1828m 2°C 2_5 6cm 100% 5mph 7mph 1017mB
21:00 1882m -2°C -2_5 1cm 100% 5mph 7mph 1018mB
0:00 1800m -2°C -2_5 4cm 100% 5mph 7mph 1018mB
3:00 1683m -3°C -3_5 3cm 100% 5mph 7mph 1020mB
6:00 1632m -3°C -3_4 5cm 100% 4mph 6mph 1020mB
9:00 1629m -3°C -3_4 2cm 100% 4mph 5mph 1018mB
12:00 1644m -3°C -3_4 4cm 100% 4mph 6mph 1017mB
15:00 1706m -2°C -2_5 1cm 99% 5mph 6mph 1017mB
18:00 1785m -2°C -2_6 1cm 100% 6mph 8mph 1016mB
21:00 1592m -3°C -3_6 2cm 100% 6mph 9mph 1017mB
0:00 1308m -5°C -5_6 6cm 100% 6mph 8mph 1019mB
3:00 1033m -7°C -7_5 2cm 100% 5mph 8mph 1023mB
6:00 882m -8°C -8_5 3cm 100% 5mph 7mph 1024mB
9:00 686m -7°C -7_4 2cm 100% 4mph 8mph 1026mB
12:00 597m -6°C -6_4 4cm 100% 4mph 7mph 1026mB
15:00 650m -7°C -7_4 1cm 100% 4mph 6mph 1026mB
18:00 978m -5°C -5_5 2cm 100% 5mph 7mph 1024mB
21:00 1148m -5°C -5_5 1cm 99% 5mph 7mph 1022mB
0:00 996m -5°C -5_5 1cm 98% 5mph 7mph 1021mB
3:00 628m -7°C -7_3 1cm 94% 3mph 4mph 1024mB
6:00 358m -9°C -9_1 1cm 92% 1mph 2mph 1026mB
9:00 248m -10°C -10_1 1cm 97% 1mph 1mph 1026mB
12:00 135m -9°C -9_1 1cm 98% 1mph 2mph 1026mB
15:00 419m -9°C -9_4 1cm 97% 4mph 6mph 1027mB
18:00 814m -6°C -6_4 1cm 95% 4mph 5mph 1024mB
21:00 938m -6°C -6_5 1cm 96% 5mph 6mph 1022mB
0:00 738m -7°C -7_5 1cm 96% 5mph 7mph 1021mB
3:00 243m -10°C -10_2 1cm 99% 2mph 3mph 1025mB
6:00 52m -11°C -11_3 1cm 97% 3mph 3mph 1026mB
9:00 0m -13°C -13_5 0cm 51% 5mph 5mph 1027mB
12:00 0m -11°C -11_6 0cm 26% 6mph 6mph 1028mB
15:00 143m -10°C -10_6 0cm 0% 6mph 6mph 1028mB
18:00 1474m -2°C -2_4 0cm 0% 4mph 8mph 1023mB
Morning 0.322917mm 0 638m -7°C -7_6 0cm 33% 6mph 6mph 1026mB
Afternoon 0.0572917mm 0 1725m 0°C 0_2 0cm 0% 2mph 2mph 1027mB
Morning 0.0260417mm 0 888m -6°C -6_5 0cm 47% 5mph 6mph 1030mB
Afternoon 0.3125mm 0 2998m 2°C 2_6 0cm 37% 6mph 11mph 1022mB
Morning 0.572917mm 0 1401m -2°C -2_7 0cm 37% 7mph 7mph 1022mB
Afternoon 0.28125mm 0 3068m 3°C 3_9 0cm 3% 9mph 17mph 1016mB
Morning 0.0208333mm 0.4375 1297m -3°C -3_5 4cm 52% 5mph 6mph 1022mB
Afternoon 0.00520833mm 0 1881m 2°C 2_6 0cm 28% 6mph 11mph 1021mB
Morning 0.0520833mm 0 1107m -4°C -4_5 0cm 1% 5mph 6mph 1020mB
Afternoon 0.078125mm 0 2375m 3°C 3_5 0cm 59% 5mph 11mph 1012mB
Morning 0.015625mm 0 1672m -1°C -1_7 0cm 92% 7mph 11mph 1005mB
Afternoon 0.0208333mm 0 1971m 2°C 2_13 0cm 12% 13mph 27mph 1005mB

16 day outlook at a glance

Forecast issued: 23/09/2018 05:11:26

Chat

Your comments and questions. In a resort? Let us know what it's like!


Characters left 250

For terms and conditions see Readers Comments on the Cookie and privacy policy page.